Weather Roundup
Issued by NWS Corpus Christi, TX

Home | Current Version | Previous Version | Text Only | Print | Product List | Glossary On
Versions: 1 2 3 4 5 6 7 8 9 10 11 12 13 14 15 16 17 18 19 20 21 22 23 24 25 26 27 28 29 30 31 32 33 34 35 36 37 38 39 40 41 42 43 44 45 46 47 48 49 50
000
ASUS44 KCRP 190910
HRRCRP

SOUTH TEXAS REGIONAL WEATHER ROUNDUP
NATIONAL WEATHER SERVICE CORPUS CHRISTI TX
400 AM CDT SAT APR 19 2014


TXZ229>244-191000-
...CORPUS CHRISTI AREA OBSERVATIONS...

CITY           SKY/WX    TMP DP  RH WIND       PRES   REMARKS
CORPUS CHRISTI MOCLDY    58  55  90 CALM      30.09S
NAS CORPUS CHR MOCLDY    63  60  90 SE3       30.08F
ROCKPORT       PTCLDY    59  57  93 CALM      30.09S
KINGSVILLE NAS MOCLDY    56  54  93 NW3       30.10S
ALICE          CLOUDY    57  54  89 CALM      30.09S
FALFURRIAS     CLOUDY    56  53  90 CALM      30.09S
$$

...VICTORIA AREA OBSERVATIONS...

CITY           SKY/WX    TMP DP  RH WIND       PRES   REMARKS
VICTORIA       FOG       52  51  97 NW5       30.11R VSB 1/4
BEEVILLE       FAIR      58  58 100 CALM      30.10R
PLEASANTON     CLEAR     55  52  91 CALM      30.12S
SAN ANTONIO    PTCLDY    60  55  83 CALM      30.12F
$$

...LAREDO AREA OBSERVATIONS...

CITY           SKY/WX    TMP DP  RH WIND       PRES   REMARKS
LAREDO         CLOUDY    66  55  67 SE7       30.11S
COTULLA        CLEAR     60  51  72 S3        30.09F
DEL RIO        CLOUDY    68  57  68 SE13      30.05S
MCALLEN        CLOUDY    63  61  93 SE5       30.08F
HEBBRONVILLE   CLOUDY    59  56  92 SE3       30.10S
$$

...OTHER TEXAS OBSERVATIONS...

CITY           SKY/WX    TMP DP  RH WIND       PRES   REMARKS
BROWNSVILLE    CLOUDY    62  61  96 CALM      30.08S
HOUSTON        PTCLDY    58  56  93 CALM      30.12F
COL. STATION   PTCLDY    59  53  80 SE3       30.13R
AUSTIN         MOCLDY    51  50  96 CALM      30.12S
WACO           CLEAR     50  48  93 CALM      30.13S
FORT WORTH     MOCLDY    56  46  69 E5        30.12F
WICHITA FALLS  MOCLDY    52  47  83 S8        30.10F
LUBBOCK        MOCLDY    53  42  66 SE12      30.08F
EL PASO        MOCLDY    64  46  52 SE6       29.99S
$$

...MARINE OBSERVATIONS...

STATION/POSITION TIME  SKY/WX   TEMP    WIND        PRES    VSBY  WAVE   SWELL
                                AIR SEA DIR/SP/G                  HT/PER HT/PER
                 (UTC)          (F)     (DEG/KT/KT) (MB)    (MI)  (FT/S) (FT/S)
PORT ARANSAS     0900            66 67  140/  3/  4 1019.0S
BUOY 90 E PORT A NOT AVBL
BUOY 45 SE BAFFI 0900            67 67  110/  8/ 10 1018.3F         4/ 9   3/ 9
BUOY 200 E PT IS NOT AVBL
BUOY 15 E GALVES 0900            66 66   40/  6/  8 1019.2F         1/ 7   2/ 7
$$



USA.gov is the U.S. government's official web portal to all federal, state and local government web resources and services.